SCP
2 2 1 1 0 0 0 0 0 0 0 0 0 0 0 1 0 0 0 0 0 0 0 0 0 0 0 0 1 1 1 1 1 1 1 0 0 0
2 1 1 1 0 0 0 0 0 0 0 0 0 0 0 0 0 0 0 0 0 0 0 0 0 0 0 0 0 0 0 0 0 0 0 0 0 0
1 1 1 0 0 0 0 0 0 0 0 0 0 0 0 0 0 0 0 0 0 0 0 0 0 0 0 0 0 0 0 0 0 0 0 0 0 0
0 1 1 1 1 1 1 1 1 1 0 0 0 0 0 0 0 0 0 0 0 0 0 0 0 0 0 0 0 0 0 0 0 0 0 0 0 0
0 1 1 1 1 1 1 1 1 1 1 1 1 1 1 0 0 0 0 0 0 0 0 0 0 0 0 0 0 0 0 0 0 0 0 0 0 0
1 1 1 1 1 1 1 1 1 1 1 1 1 1 1 0 0 0 1 1 0 0 0 0 0 0 0 0 0 0 0 0 0 0 0 0 0 0
1 1 1 1 1 1 1 1 1 1 1 1 1 1 1 0 0 0 1 1 0 0 0 0 0 0 0 0 0 0 0 0 0 0 0 0 0 0
1 1 1 1 1 1 1 1 1 1 1 1 1 1 1 0 0 0 0 0 0 0 0 0 0 0 0 0 0 0 0 0 0 0 0 0 0 0
2 2 1 1 1 1 1 1 0 0 0 0 1 0 0 0 0 0 0 0 0 0 0 0 0 0 0 0 0 0 0 0 0 0 0 0 0 0
2 2 2 2 2 2 2 1 1 0 0 0 0 0 0 0 0 0 0 0 0 0 0 0 0 0 0 0 0 0 0 0 0 0 0 0 0 0
4 4 3 3 3 2 2 2 1 1 0 0 0 0 0 0 0 0 0 0 0 0 0 0 0 0 0 0 0 0 0 0 0 0 0 0 0 0
6 6 5 4 3 2 3 3 2 1 0 0 0 0 0 0 0 0 0 0 0 0 0 0 0 0 0 0 0 0 0 0 0 0 0 0 0 0
8 8 8 6 3 2 2 3 2 1 0 0 0 0 0 0 0 0 0 0 0 0 0 0 0 0 0 0 0 0 0 0 0 0 0 0 0 0
9 9 9 7 3 1 1 2 1 1 0 0 0 0 0 0 0 0 0 0 0 0 0 0 0 0 0 0 0 0 0 0 0 0 0 0 0 0
8 7 7 5 3 1 1 1 0 0 0 0 0 0 0 0 0 0 0 0 0 0 0 0 0 0 0 0 0 0 0 0 0 0 0 0 0 0
6 6 5 4 3 3 2 1 0 0 0 0 0 0 0 0 0 0 0 0 0 0 0 0 0 0 0 0 0 0 0 0 0 0 0 0 0 0
6 6 5 4 4 4 3 1 0 0 0 0 0 0 0 0 0 0 0 0 0 0 0 0 0 0 0 0 0 0 0 0 0 0 0 0 0 0
4 5 5 5 5 4 3 1 0 0 0 0 0 0 0 0 0 0 0 0 0 0 0 0 0 0 0 0 0 0 0 0 0 0 0 0 0 0
2 3 3 3 3 3 2 1 0 0 0 0 0 0 0 0 0 0 0 0 0 0 0 0 0 0 0 0 0 0 0 0 0 0 0 0 0 0
2 2 2 1 1 1 0 0 0 0 0 0 0 0 0 0 0 0 0 0 0 0 0 0 0 0 0 0 0 0 0 0 0 0 0 0 0 0
1 1 0 0 0 0 0 0 0 0 0 0 0 0 0 0 0 0 0 0 0 0 0 0 0 0 0 0 0 0 0 0 0 0 0 0 0 0
0 0 0 0 0 0 0 0 0 0 0 0 0 0 0 0 0 0 0 0 0 0 0 0 0 0 0 0 0 0 0 0 0 0 0 0 0 0
0 0 0 0 0 0 0 0 0 0 0 0 0 0 0 0 0 0 0 0 0 0 0 0 0 0 0 0 0 0 0 0 0 0 0 0 0 0
Wind_Speed
1 1 1 1 1 1 2 2 3 2 1 1 2 3 3 4 6 5 6 11 12 11 11 11 10 10 10 10 10 9 9 9 8 6 5 4 4 4
2 3 2 2 1 1 1 1 1 2 2 2 2 2 3 4 6 5 6 11 12 12 12 12 12 12 12 11 11 10 10 10 9 9 8 7 6 5
3 4 3 2 2 2 2 2 2 3 4 2 2 3 4 4 4 4 5 5 7 12 12 12 12 12 12 12 11 11 11 11 11 11 11 10 9 9
3 4 3 3 3 2 2 3 3 3 4 5 2 2 3 3 4 4 5 5 6 10 11 12 12 12 12 12 12 12 12 12 12 12 12 12 11 11
3 3 3 3 3 3 3 3 3 4 4 5 3 2 2 2 3 4 5 4 5 6 9 11 11 12 11 11 11 11 11 11 11 11 12 12 12 12
4 3 3 3 3 3 4 4 4 5 5 5 4 3 2 2 2 3 3 3 3 4 6 7 9 11 11 11 11 11 10 10 10 10 11 11 11 11
4 4 4 5 5 4 4 4 5 5 4 4 4 3 2 2 2 2 3 2 3 3 3 3 4 4 5 7 9 10 10 10 10 10 10 10 9 9
4 4 4 5 6 7 8 7 6 5 5 4 3 3 3 2 2 3 3 2 2 1 2 2 2 3 3 3 6 7 8 8 9 9 8 8 8 9
4 4 4 4 5 5 7 8 7 7 5 4 4 3 3 3 4 4 3 2 2 1 1 2 1 2 2 2 4 5 5 6 6 7 7 6 6 6
4 4 4 4 4 4 5 6 5 5 4 2 2 2 2 3 4 4 4 3 2 2 1 1 1 1 1 1 2 3 3 4 4 4 5 5 5 5
4 4 3 3 4 5 5 5 5 4 5 7 6 5 6 6 5 4 4 3 2 1 1 1 0 0 0 1 1 2 2 2 3 3 3 3 3 3
3 4 5 4 4 4 4 4 4 2 3 4 5 6 5 5 5 3 3 3 2 1 1 1 1 0 0 0 1 1 1 1 1 1 2 2 2 1
2 2 2 4 5 5 4 3 3 3 3 4 4 4 3 3 2 2 1 2 2 1 1 2 1 0 0 0 1 1 1 1 1 1 1 2 2 1
2 1 1 4 5 5 4 4 6 5 3 3 3 3 2 1 1 1 1 1 1 0 1 2 1 1 1 0 0 1 1 1 1 1 2 2 2 1
2 2 3 4 5 4 5 5 5 3 3 3 2 1 1 0 1 1 2 2 2 2 2 1 2 2 1 1 0 0 1 1 1 1 2 2 1 1
2 3 4 5 4 4 4 3 2 2 2 2 1 1 1 1 1 1 1 1 2 2 3 2 1 2 2 1 1 1 1 1 1 1 2 2 2 2
3 2 2 2 2 2 2 2 2 2 2 1 1 1 1 1 1 1 1 1 1 1 1 2 2 1 1 1 1 1 1 1 2 1 1 2 3 2
4 2 2 2 2 1 1 1 0 1 1 1 1 1 1 1 1 1 1 1 0 0 0 0 1 1 0 1 3 2 2 2 2 2 2 2 3 3
3 2 2 2 2 2 2 1 1 1 1 1 1 1 1 1 1 1 1 0 1 1 1 1 1 1 1 3 2 3 3 2 2 2 2 3 4 4
2 3 3 2 2 2 2 2 2 1 1 1 1 1 2 2 1 1 1 1 1 2 1 1 2 2 3 3 3 2 4 3 2 2 2 2 3 4
3 3 3 3 3 2 2 2 2 2 2 2 2 2 2 2 2 2 2 2 2 2 3 3 3 3 2 1 2 2 2 4 5 3 3 2 3 3
4 4 3 3 3 3 2 2 2 2 2 2 2 2 2 2 2 3 2 2 2 3 4 3 1 1 2 2 3 3 3 2 3 4 6 5 3 3
4 4 3 3 3 3 3 3 3 3 3 3 3 3 2 2 2 2 2 2 2 2 2 2 1 1 2 3 3 3 3 3 3 3 3 4 6 8
Wind_Direction
32 54 63 41 97 133 152 166 164 162 119 58 44 31 44 58 54 59 63 68 69 67 65 64 65 64 63 64 62 58 54 51 53 56 60 65 68 62
49 65 59 47 67 88 141 146 152 151 129 85 65 50 51 66 65 64 67 70 68 69 68 68 67 65 63 63 61 59 57 57 58 60 61 62 66 71
47 63 61 60 68 59 79 94 98 114 123 101 71 63 61 68 64 67 69 65 67 69 71 72 69 67 65 63 61 61 60 60 59 59 60 60 59 59
48 58 56 70 68 64 78 89 96 101 126 125 93 69 67 79 77 75 70 72 70 69 71 71 69 67 65 64 63 61 59 59 60 60 58 57 58 59
59 64 63 77 75 72 81 87 93 99 103 120 110 85 77 87 84 76 70 62 72 72 69 67 67 67 66 64 62 60 58 58 57 58 58 55 56 56
54 57 62 75 88 92 91 92 101 103 105 112 112 102 95 91 98 94 79 58 61 60 61 64 65 65 63 62 63 63 61 60 58 57 57 56 55 55
49 47 56 70 75 89 102 106 112 113 114 115 116 112 114 126 122 121 106 89 62 51 60 55 52 53 51 53 59 62 63 62 62 61 59 56 53 52
52 41 50 57 69 78 88 96 108 125 133 132 132 142 150 145 130 136 131 121 98 46 65 56 47 52 41 48 51 59 63 64 63 63 60 56 52 50
56 48 51 53 63 80 80 77 75 83 106 142 146 160 165 169 155 144 135 120 108 95 97 72 45 49 36 49 52 57 62 64 66 65 60 54 48 44
52 56 63 50 60 87 92 80 69 60 67 97 130 151 153 162 164 151 139 113 91 80 80 94 51 28 20 24 36 54 61 63 62 61 59 50 42 40
50 51 62 62 62 91 100 95 78 58 64 72 80 88 97 106 123 124 121 122 112 100 52 87 76 1 352 358 9 23 32 46 46 46 49 45 39 35
56 47 52 68 74 94 109 110 99 73 67 66 67 71 82 92 95 116 141 140 124 138 132 129 111 75 80 8 346 351 5 16 5 13 25 27 17 16
83 54 41 62 77 83 97 109 127 120 97 88 81 77 77 77 74 79 112 145 147 143 159 163 150 137 116 305 312 329 334 331 331 331 339 340 325 297
124 98 65 77 83 86 94 101 106 104 100 93 86 77 77 72 59 58 93 106 124 185 175 172 158 165 155 165 284 318 317 309 304 308 323 328 311 281
132 122 97 89 87 81 89 103 107 106 105 100 99 79 48 16 56 66 62 71 69 63 89 171 165 158 172 183 214 286 295 301 300 300 306 307 303 306
115 95 85 80 79 79 76 77 89 107 119 120 114 86 69 81 72 59 68 66 67 49 49 59 121 162 169 177 187 231 263 277 300 306 299 289 280 265
129 100 84 83 80 69 64 67 76 91 97 102 113 109 101 90 64 53 80 91 87 62 27 26 30 36 198 187 210 249 272 281 282 294 291 293 287 279
127 126 130 138 150 158 152 119 97 128 147 151 145 147 149 141 113 88 107 128 148 231 273 337 358 23 22 220 219 247 267 280 287 274 259 274 287 288
140 161 172 180 187 190 194 194 202 214 174 177 175 174 169 169 170 175 172 195 235 252 261 238 208 210 287 304 290 211 236 270 274 273 263 261 272 285
182 188 197 200 200 205 211 216 213 179 166 182 187 189 187 191 202 215 219 233 245 253 259 243 232 232 247 276 286 275 230 236 253 273 283 282 279 281
197 204 206 204 204 205 209 205 198 187 180 184 197 203 203 205 222 234 239 238 240 247 259 265 259 243 234 230 259 278 266 233 230 246 263 281 292 292
201 203 208 207 202 200 197 186 190 201 200 204 213 216 214 213 223 234 240 243 248 253 263 276 282 211 205 235 264 277 290 303 276 252 246 237 261 277
207 204 204 203 202 198 196 193 197 208 212 217 219 218 213 216 226 232 237 243 253 261 270 275 265 230 237 247 262 275 287 299 304 298 294 282 265 271